This demonstration page uses our WeatherBlox Daily Observations layout. Learn more.

Left ArrowRight Arrow

53.62937, 11.41316

Hourly Observations for April 1, 2015

Temp ( °F °C ) Dew Point ( °F °C ) Humidity (%) Winds ( mph kmh ) Pressure ( in mb ) Visibility ( mi km ) Precip ( " mm )
6:05 am 06:05 Mostly Cloudy 37 3 34 1 87 87 W 15 24 29.53 1000 30 48 N/A
6:41 am 06:41 Mostly Cloudy 37 3 34 1 87 87 W 12 19 29.53 1000 30 48 N/A
6:50 am 06:50 Mostly Cloudy 37 3 34 1 87 87 W 12 19 29.56 1001 30 48 N/A
7:20 am 07:20 Mostly Cloudy 37 3 34 1 87 87 WSW 15 24 29.56 1001 30 48 N/A
7:50 am 07:50 Mostly Cloudy 37 3 34 1 87 87 W 15 24 29.56 1001 30 48 N/A
8:20 am 08:20 Cloudy 37 3 36 2 93 93 WSW 16 26 29.59 1002 30 48 N/A
8:50 am 08:50 Mostly Cloudy 37 3 36 2 93 93 WSW 18 30 29.59 1002 30 48 N/A
9:20 am 09:20 Mostly Cloudy 39 4 36 2 87 87 W 18 30 29.59 1002 30 48 N/A
9:50 am 09:50 Mostly Cloudy 41 5 36 2 81 81 W 18 30 29.59 1002 30 48 N/A
10:20 am 10:20 Mostly Cloudy 41 5 36 2 81 81 W 23 37 29.62 1003 30 48 N/A
10:50 am 10:50 Mostly Cloudy 41 5 36 2 81 81 W 23 37 29.59 1002 30 48 N/A
11:20 am 11:20 Mostly Cloudy with Light Rain 41 5 34 1 76 76 W 26 43 29.62 1003 30 48 N/A
11:50 am 11:50 Mostly Cloudy with Light Rain 37 3 34 1 87 87 W 23 37 29.65 1004 30 48 N/A
11:53 am 11:53 Mostly Cloudy 37 3 34 1 87 87 W 24 39 29.65 1004 30 48 N/A
12:20 pm 12:20 Mostly Cloudy with Light Rain 37 3 34 1 87 87 WNW 23 37 29.68 1005 30 48 N/A
12:50 pm 12:50 Mostly Cloudy 41 5 36 2 81 81 W 18 30 29.68 1005 30 48 N/A
1:20 pm 13:20 Cloudy 43 6 36 2 76 76 W 24 39 29.65 1004 30 48 N/A
1:50 pm 13:50 Mostly Cloudy 45 7 32 0 61 61 WNW 20 31 29.68 1005 30 48 N/A
2:20 pm 14:20 Mostly Cloudy with Light Rain 43 6 32 0 66 66 WNW 28 44 29.68 1005 30 48 N/A
2:50 pm 14:50 Partly Cloudy 45 7 28 -2 53 53 WNW 26 43 29.68 1005 30 48 N/A
3:20 pm 15:20 Partly Cloudy 46 8 23 -5 40 40 WNW 25 41 29.68 1005 30 48 N/A
3:50 pm 15:50 Mostly Cloudy 43 6 28 -2 57 57 NW 15 24 29.71 1006 30 48 N/A
4:04 pm 16:04 Partly Cloudy 45 7 25 -4 46 46 W 26 43 29.71 1006 30 48 N/A
5:20 pm 17:20 Partly Cloudy 41 5 30 -1 66 66 WNW 17 28 29.74 1007 30 48 N/A
5:50 pm 17:50 Mostly Cloudy with Showers Nearby 41 5 27 -3 57 57 WNW 20 31 29.74 1007 30 48 N/A
6:20 pm 18:20 Partly Cloudy 37 3 32 0 81 81 WNW 18 30 29.77 1008 30 48 N/A
6:50 pm 18:50 Partly Cloudy 39 4 30 -1 70 70 WNW 9 15 29.74 1007 30 48 N/A

Powered by AerisWeather